This is the latest recevied weather packets stored in our database for station/object ED5YAL-15. If no packets are shown the sender has not sent any weather packets the latest 10 day(s).
| Time | Temp. | Humidity | Pressure | Rain* | Wind** | Luminosity | Snow |
|---|---|---|---|---|---|---|---|
| 1777523487 | 14.44° C | 48% | 1018.2 hPa | - | - | - | - |
| 1777522587 | 15.56° C | 48% | 1018.2 hPa | - | - | - | - |
| 1777521686 | 15.56° C | 48% | 1018.1 hPa | - | - | - | - |
| 1777520785 | 15° C | 48% | 1018.1 hPa | - | - | - | - |
| 1777519884 | 15° C | 48% | 1018.2 hPa | - | - | - | - |
| 1777518983 | 15° C | 48% | 1018.3 hPa | - | - | - | - |
| 1777518083 | 14.44° C | 48% | 1018.3 hPa | - | - | - | - |
| 1777517182 | 14.44° C | 48% | 1018.2 hPa | - | - | - | - |
| 1777516281 | 14.44° C | 48% | 1018.1 hPa | - | - | - | - |
| 1777515380 | 17.78° C | 48% | 1018.1 hPa | - | - | - | - |
| 1777514495 | 15.56° C | 48% | 1018.2 hPa | - | - | - | - |
| 1777513595 | 15.56° C | 47% | 1018.1 hPa | - | - | - | - |
| 1777512729 | 16.11° C | 47% | 1018.1 hPa | - | - | - | - |
| 1777512694 | 16.11° C | 47% | 1018.1 hPa | - | - | - | - |
| 1777511793 | 16.11° C | 47% | 1018.2 hPa | - | - | - | - |
| 1777510892 | 16.11° C | 47% | 1018.2 hPa | - | - | - | - |
| 1777509991 | 16.11° C | 47% | 1018.3 hPa | - | - | - | - |
| 1777509090 | 15.56° C | 47% | 1018.3 hPa | - | - | - | - |
| 1777508190 | 15.56° C | 47% | 1018.4 hPa | - | - | - | - |
| 1777507289 | 15° C | 47% | 1018.4 hPa | - | - | - | - |
| 1777506388 | 15° C | 47% | 1018.3 hPa | - | - | - | - |
| 1777505487 | 14.44° C | 47% | 1018.3 hPa | - | - | - | - |
| 1777504586 | 15° C | 47% | 1018.2 hPa | - | - | - | - |
| 1777503686 | 15.56° C | 47% | 1018 hPa | - | - | - | - |
| 1777502785 | 15.56° C | 47% | 1017.9 hPa | - | - | - | - |
* Rain since midnight (hover to see other rain measurements)
** Current wind speed in m/s (hover to see current wind gust speed)